Details From ZJHK - Meilan
To VTSP - Phuket Intl
Flight Number -
Tags Generated
Created
Modified
Stats Distance 1,001 nm / 1,854 km
Max Altitude 0 ft / 0 m
Waypoints 3
Social Downloads 2
Likes 0
Share VATSIM

Download

Looking for another format? Having issues loading an existing format? Contact us
Advertisement - Login to hide

Notes

Generated

Route

ZJHK PUT VTSP

ID Type Via Altitude Latitude Longitude Leg Dist Tot Dist Heading (true) Name
O ZJHK APT - 0 ft / 0 m 19.93477˚ 110.43803˚ - 0 nm - -
PUT VOR - 0 ft / 0 m 8.11523˚ 98.30630˚ 1000 nm 1000 nm 227° / 224° PHUKET VOR-DME
O VTSP APT - 0 ft / 0 m 8.11189˚ 98.30327˚ 0 nm 1000 nm 222° / 222° -

Altitude Profile

Advertisement - Login to hide

Weather


0- 5 10 15 20 25 30 35+ Temperature / ° C

Clouds and Precipitation
Forecast for 2018-05-22 12:00 UTC. Updated 5 hours ago

Ground ~20,000 ft ~40,000 ft Winds

ZJHK

Details ICAO ZJHK (HAK)
Name MEILAN
Region China
Timezone Asia/Chongqing (UTC+8.0)
Stats Elevation 75 ft / 23 m (AMSL)
Location 19.934836° 110.455264°
Runways 1
Magnetic Variation 1.961° W

METAR

ZJHK 221600Z 14002MPS CAVOK 25/24 Q1012 NOSIG

Decode

TAF

Not found

Departure Runways

ID Width Length Bearing (true) Bearing (mag) Surface Threshold Offset Overrun Length
09 148 ft / 45 m 11,822 ft / 3,603 m 89.76° 91.72° Concrete 0 ft / 0 m 197 ft / 60 m
27 148 ft / 45 m 11,822 ft / 3,603 m 269.78° 271.74° Concrete 0 ft / 0 m 197 ft / 60 m

VTSP

Details ICAO VTSP (HKT)
Name Phuket Intl
Region Thailand
Timezone Asia/Bangkok (UTC+7.0)
Stats Elevation 82 ft / 25 m (AMSL)
Location 8.113199° 98.316871°
Runways 1
Magnetic Variation 0.423° W

METAR

VTSP 221600Z 12003KT 8000 FEW020 SCT100 26/24 Q1011 NOSIG

Decode

TAF

TAF VTSP 221100Z 2212/2318 28006KT 9999 FEW020 SCT100 BECMG 2214/2216 VRB02KT 8000 SCT020 BECMG 2302/2304 08006KT 9999 FEW020 SCT100 BECMG 2306/2308 28008KT TEMPO 2310/2314 VRB10G20KT 5000 TSRA FEW018CB SCT020 BKN100

Decode

Destination Runways

ID Width Length Bearing (true) Bearing (mag) Surface Threshold Offset Overrun Length
09 148 ft / 45 m 9,870 ft / 3,008 m 84.45° 84.87° Asphalt 0 ft / 0 m 197 ft / 60 m
27 148 ft / 45 m 9,870 ft / 3,008 m 264.46° 264.88° Asphalt 0 ft / 0 m 197 ft / 60 m

Approach Navaids

Runway Type Ident Frequency Range Bearing (true) Bearing (mag) Slope Elevation
27 Localiser IPKT 109.90 MHz 18 nm / 33 km 263.45° 263.88° - 19 ft / 6 m (AMSL)
27 Glidescope IPKT 109.90 MHz 10 nm / 19 km 263.45° 263.88° 3.20° 82 ft / 25 m (AMSL)
27 DME IPKT 109.90 MHz 18 nm / 33 km - - - 82 ft / 25 m (AMSL)